User: anonymous   Login
Location: Unspecified
(0.0000°N, 0.0000°E)
Time: 01:26:06
(UTC+00:00)
Language:

PACE - Orbit

View from above orbital plane
View from above orbital plane
View from above satellite
View from above satellite

Ground track
Ground track

The orbit data is extracted from the following two-line orbital elements,

1 40022U 14033N   17266.59165775 +.00000302 +00000-0 +38768-4 0  9997
2 40022 097.9074 177.4996 0013293 350.5713 009.5251 14.88271458177118
Epoch (UTC): 23 September 2017 14:11:59
Eccentricity: 0.0013293
inclination: 97.9074°
perigee height: 594 km
apogee height: 612 km
right ascension of ascending node: 177.4996°
argument of perigee: 350.5713°
revolutions per day: 14.88271458
mean anomaly at epoch: 9.5251°
orbit number at epoch: 17711

The dashed part of the orbit path shows where the satellite is in the earth's shadow,  

DLR